Weather Roundup
Issued by NWS

Home | Current Version | Previous Version | Graphics & Text | Print | Product List | Glossary On
Versions: 1 2 3 4 5 6 7 8 9 10 11 12 13 14 15 16 17 18 19 20 21 22 23 24 25 26 27 28 29 30 31 32 33 34 35 36 37 38 39 40 41 42 43 44 45 46 47 48 49 50
000
NZUS93 KARX 191359
HRRWXR

CURRENT HOURLY OBSERVATIONS ACROSS
MUCH OF THE UPPER MISSISSIPPI VALLEY
NATIONAL WEATHER SERVICE LA CROSSE WI
800 AM CST FRI DEC 19 2014


...SOUTHEAST MINNESOTA...


CITY           SKY/WX    TMP DP  RH WIND       PRES   REMARKS
ROCHESTER      CLOUDY    23  18  81 S7        30.24S WCI  15
ROCHESTER/MAYO CLOUDY    24  18  80 SE5       30.24F WCI  18
WINONA         CLOUDY    27  19  74 SE5       30.30S WCI  21
AUSTIN         CLOUDY    25  19  80 S5        30.24S WCI  19
ALBERT LEA     CLOUDY    25  23  93 S6        30.22F FOG     WCI  18
DODGE CENTER   CLOUDY    25  21  86 S7        30.23R FOG     WCI  17
PRESTON        CLOUDY    22  19  86 S6        30.25S WCI  15
OWATONNA       PTCLDY    25  21  86 SE7       30.22F FOG     WCI  17
FARIBAULT      CLOUDY    25  21  86 SE3       30.23F
$$

...ELSEWHERE IN MINNESOTA...


CITY           SKY/WX    TMP DP  RH WIND       PRES   REMARKS
MINNEAPOLIS    CLOUDY    23  18  81 SE6       30.25S WCI  16
INTNL FALLS    CLOUDY    21  17  84 SE6       30.16S WCI  13
DULUTH         LGT SNOW  21  18  88 S6        30.20S FOG     WCI  13
RED WING       CLOUDY    25  18  74 SE5       30.27S WCI  19
REDWOOD FALLS  CLOUDY    27  25  92 S10       30.17F WCI  17
MANKATO        CLOUDY    27  21  80 S8        30.21F WCI  18
WORTHINGTON    CLOUDY    28  27  93 S10       30.16S WCI  19
FAIRMONT       CLOUDY    27  21  80 S10       30.20S WCI  17
$$

...SOUTHWEST WISCONSIN...


CITY           SKY/WX    TMP DP  RH WIND       PRES   REMARKS
LA CROSSE      CLOUDY    24  18  77 CALM      30.30S
PRAIRIE DU CHI CLOUDY    26  20  78 E3        30.30S
BOSCOBEL       CLOUDY    25  19  78 CALM      30.31S
LONE ROCK      NOT AVBL
PLATTEVILLE    MOCLDY    23  20  88 CALM      30.29S
FORT MC COY    CLOUDY    24  19  81 CALM      30.30S
VIROQUA        CLOUDY    23  19  85 CALM      30.26R
WIS DELLS      NOT AVBL
$$

...ELSEWHERE IN WISCONSIN...


CITY           SKY/WX    TMP DP  RH WIND       PRES   REMARKS
MILWAUKEE      CLOUDY    26  18  71 NW5       30.30S WCI  20
MADISON        CLOUDY    25  19  78 W5        30.29S WCI  19
GREEN BAY      CLEAR     18  15  88 CALM      30.30S
EAU CLAIRE     NOT AVBL
BLACK RVR FLS  CLOUDY    24  19  83 CALM      30.29R
MEDFORD        CLOUDY    21  19  91 CALM      30.24S
WAUSAU         CLOUDY    17  14  88 CALM      30.26R
WIS RAPIDS     CLOUDY    22  18  85 E3        30.30R
MARSHFIELD     CLOUDY    23  20  88 CALM      30.26S
RICE LAKE      CLOUDY    23  20  89 S7        30.27S WCI  15
$$

...NORTHEAST IOWA...


CITY           SKY/WX    TMP DP  RH WIND       PRES   REMARKS
DECORAH        CLOUDY    23  19  86 CALM      30.26R
MASON CITY     CLOUDY    25  21  85 SE7       30.25S WCI  17
CHARLES CITY   CLOUDY    25  21  86 SE3       30.27R
OELWEIN        CLOUDY    23  19  86 CALM      30.27S
$$

...ELSEWHERE IN IOWA...


CITY           SKY/WX    TMP DP  RH WIND       PRES   REMARKS
DES MOINES     CLOUDY    29  25  85 CALM      30.26F FOG
IOWA CITY      PTCLDY    20  18  92 SE3       30.32S
FORT DODGE     CLOUDY    27  25  93 S5        30.24S WCI  21
$$

...NORTHERN ILLINOIS...


CITY           SKY/WX    TMP DP  RH WIND       PRES   REMARKS
CHICAGO-OHARE  CLOUDY    28  21  75 N6        30.29S WCI  22
CHICAGO-MIDWAY CLOUDY    31  23  72 N7        30.29S WCI  24
MOLINE         PTCLDY    15  12  88 CALM      30.32S
ROCKFORD       CLOUDY    27  21  78 NE3       30.32R
PEORIA         PTCLDY    20  15  81 CALM      30.32S HAZE
$$

NOTE: "FAIR" INDICATES FEW OR NO CLOUDS BELOW 12,000 FEET WITH NO
SIGNIFICANT WEATHER AND/OR OBSTRUCTIONS TO VISIBILITY. WIND
SPEEDS ARE IN MILES-PER-HOUR.



USA.gov is the U.S. government's official web portal to all federal, state and local government web resources and services.